Location: Newark
(7.0858°N, 171.3717°E)
Time: 15:54:10
(UTC+00:00)

Transit 2A - All Passes

Search period start: 26 November 2020 00:00
Search period end: 06 December 2020 00:00
Orbit: 594 x 964 km, 66.7° (Epoch: 26 November)

Date Brightness Start Highest point End Pass type
(mag) Time Alt. Az. Time Alt. Az. Time Alt. Az.
26 Nov - 05:12:04 10° SSW 05:18:19 83° ESE 05:24:41 10° NNE daylight
26 Nov - 16:02:52 10° NNE 16:06:26 22° ENE 16:09:50 10° ESE visible
26 Nov - 17:46:49 10° WNW 17:49:14 14° WSW 17:51:36 10° SW visible
27 Nov - 04:38:10 10° S 04:44:12 53° ESE 04:50:21 10° NNE daylight
27 Nov - 06:23:58 10° W 06:27:24 15° WNW 06:30:50 10° NNW daylight
27 Nov - 15:30:17 10° NE 15:32:12 12° ENE 15:34:06 10° E visible
27 Nov - 17:11:27 10° NW 17:15:10 26° WSW 17:18:47 10° SSW visible
28 Nov - 04:04:35 10° S 04:10:06 33° ESE 04:15:43 10° NE daylight
28 Nov - 05:48:15 10° WSW 05:53:10 24° WNW 05:58:08 10° NNW daylight
28 Nov - 16:36:46 10° NW 16:41:06 49° WSW 16:45:16 10° S visible
29 Nov - 03:31:28 10° SSE 03:36:01 21° ESE 03:40:37 10° ENE daylight
29 Nov - 05:13:15 10° SW 05:18:58 37° WNW 05:24:47 10° N daylight
29 Nov - 16:02:30 10° NNW 16:07:01 87° ENE 16:11:19 10° SSE visible
30 Nov - 02:59:21 10° SE 03:01:56 13° ESE 03:04:32 10° E daylight
30 Nov - 04:38:39 10° SSW 04:44:49 59° WNW 04:51:03 10° N daylight
30 Nov - 15:28:34 10° N 15:32:53 45° ENE 15:37:01 10° SE visible
01 Dec - 04:04:23 10° SSW 04:10:41 90° ESE 04:17:03 10° NNE daylight
01 Dec - 14:55:01 10° NNE 14:58:43 25° ENE 15:02:16 10° ESE night (unlit)
01 Dec - 16:39:35 10° W 16:41:30 13° WSW 16:43:22 10° SW visible
02 Dec - 03:30:26 10° S 03:36:34 58° ESE 03:42:47 10° NNE daylight
02 Dec - 05:16:50 10° W 05:19:47 13° WNW 05:22:43 10° NW daylight
02 Dec - 14:22:10 10° NE 14:24:31 14° ENE 14:26:48 10° E night (unlit)
02 Dec - 16:03:55 10° NW 16:07:26 23° WSW 16:10:51 10° SSW visible
03 Dec - 02:56:47 10° S 03:02:28 37° ESE 03:08:13 10° NE daylight
03 Dec - 04:40:51 10° WSW 04:45:33 22° WNW 04:50:16 10° NNW daylight
03 Dec - 15:29:09 10° NW 15:33:22 42° WSW 15:37:26 10° S night (unlit)
04 Dec - 02:23:33 10° SSE 02:28:23 23° ESE 02:33:14 10° ENE daylight
04 Dec - 04:05:43 10° SW 04:11:21 34° WNW 04:17:00 10° N daylight
04 Dec - 14:54:49 10° NNW 14:59:17 83° WSW 15:03:34 10° SSE night (unlit)
05 Dec - 01:51:07 10° SE 01:54:17 14° ESE 01:57:29 10° ENE daylight
05 Dec - 03:31:05 10° SW 03:37:11 53° WNW 03:43:21 10° N daylight
05 Dec - 14:20:49 10° N 14:25:10 51° ENE 14:29:20 10° SE night (unlit)
